Location: Unspecified
(0.0000°N, 0.0000°E)
Time: 14:27:30
(UTC+00:00)

deb Briz - Pass Details

Date: 16 February 2026
Orbit: 1676 x 2329 km, 64.7° (Epoch: 4 March)

Event Time Altitude Azimuth Distance (km) Brightness Sun altitude
Rises 20:19:47 0° 228° (SW) 5,681 ? -30.7°
Reaches altitude 10° 20:23:57 10° 239° (WSW) 4,754 ? -31.7°
Maximum altitude 20:34:06 28° 293° (WNW) 3,600 ? -34.1°
Drops below altitude 10° 20:44:41 10° 347° (NNW) 4,909 ? -36.7°
Sets 20:49:13 0° 358° (N) 5,893 ? -37.8°
